Voltar ao catálogo

STARLINK-5520

AtivoComunicaçõesVLEO
NORAD 57219·PAYLOAD·🇺🇸 United States

Lançado Jul 7, 2023 de Vandenberg Space Force Base

Loading…

Próximas Passagens (próximas 24 horas)

TLE

AtualizadoSource: CelesTrak SupGP

Época: Sep 14, 2026, 22:34 UTC

1 57219C 23094B   26257.94076389 -.00023064  00000+0 -83433-3 0  2577
2 57219  43.0012  45.2679 0001650 270.4411 312.4298 15.27630592    10

Acompanhe STARLINK-5520 em tempo real com AllMySat

Download on the App Store